• In Deutschland
  • Länderverzeichnis
  • Für 7 Tage
  • Wassertemperatur
  • Satellitenkarten
  • Wetterkarte
  • Widgets
  • user-avatar
    Anmelden

    Stündliche Wetter Ilino

    Heute, 16 August, Donnerstag

    Zeit Temperatur Niederschläge Wind Luftdruck Luftfeuchtigkeit
    00:00 +14°C° 0 mm 1 m/S 753 mmHg 98%
    01:00 +14°C° 0 mm 1 m/S 753 mmHg 98%
    02:00 +13°C° 0 mm 1 m/S 754 mmHg 98%
    03:00 +13°C° 0 mm 1 m/S 754 mmHg 98%
    04:00 +12°C° 0 mm 1 m/S 754 mmHg 97%
    05:00 +12°C° 0 mm 1 m/S 755 mmHg 97%
    06:00 +14°C° 0 mm 1 m/S 755 mmHg 94%
    07:00 +15°C° 0 mm 1 m/S 756 mmHg 91%
    08:00 +18°C° 0 mm 1 m/S 756 mmHg 86%
    09:00 +19°C° 0 mm 1 m/S 756 mmHg 77%
    10:00 +21°C° 0 mm 1 m/S 757 mmHg 68%
    11:00 +23°C° 0 mm 1 m/S 757 mmHg 59%
    12:00 +23°C° 0 mm 1 m/S 757 mmHg 56%
    13:00 +24°C° 0 mm 1 m/S 757 mmHg 53%
    14:00 +24°C° 0 mm 1 m/S 758 mmHg 51%
    15:00 +24°C° 0 mm 1 m/S 758 mmHg 54%
    16:00 +24°C° 0 mm 1 m/S 758 mmHg 56%
    17:00 +23°C° 0 mm 1 m/S 758 mmHg 58%
    18:00 +22°C° 0 mm 1 m/S 758 mmHg 65%
    19:00 +20°C° 0 mm 1 m/S 758 mmHg 72%
    20:00 +18°C° 0 mm 1 m/S 758 mmHg 79%
    21:00 +16°C° 0 mm 1 m/S 758 mmHg 81%
    22:00 +15°C° 0 mm 1 m/S 759 mmHg 84%
    23:00 +15°C° 0 mm 1 m/S 759 mmHg 86%

    Morgen, 17 August, Freitag

    Zeit Temperatur Niederschläge Wind Luftdruck Luftfeuchtigkeit
    00:00 +14°C° 0 mm 1 m/S 759 mmHg 88%
    01:00 +14°C° 0 mm 1 m/S 759 mmHg 90%
    02:00 +14°C° 0 mm 1 m/S 760 mmHg 92%
    03:00 +13°C° 0 mm 1 m/S 760 mmHg 93%
    04:00 +13°C° 0 mm 1 m/S 760 mmHg 94%
    05:00 +13°C° 0 mm 1 m/S 760 mmHg 95%
    06:00 +15°C° 0 mm 1 m/S 760 mmHg 88%
    07:00 +18°C° 0 mm 1 m/S 760 mmHg 81%
    08:00 +19°C° 0 mm 2 m/S 760 mmHg 74%
    09:00 +20°C° 0 mm 2 m/S 760 mmHg 68%
    10:00 +23°C° 0 mm 2 m/S 760 mmHg 62%
    11:00 +24°C° 0 mm 2 m/S 760 mmHg 55%
    12:00 +25°C° 0 mm 2 m/S 760 mmHg 53%
    13:00 +25°C° 0 mm 2 m/S 759 mmHg 51%
    14:00 +26°C° 0 mm 2 m/S 759 mmHg 48%
    15:00 +26°C° 0 mm 2 m/S 759 mmHg 51%
    16:00 +26°C° 0 mm 2 m/S 759 mmHg 54%
    17:00 +25°C° 0 mm 2 m/S 758 mmHg 56%
    18:00 +23°C° 0 mm 2 m/S 758 mmHg 63%
    19:00 +20°C° 0 mm 2 m/S 758 mmHg 70%
    20:00 +18°C° 0 mm 2 m/S 758 mmHg 77%
    21:00 +18°C° 0 mm 2 m/S 758 mmHg 79%
    22:00 +17°C° 0 mm 2 m/S 758 mmHg 82%
    23:00 +16°C° 0 mm 2 m/S 758 mmHg 84%

    übermorgen, 18 August, Samstag

    Zeit Temperatur Niederschläge Wind Luftdruck Luftfeuchtigkeit
    00:00 +16°C° 0 mm 2 m/S 758 mmHg 86%
    01:00 +16°C° 0 mm 2 m/S 759 mmHg 89%
    02:00 +15°C° 0 mm 2 m/S 759 mmHg 91%
    03:00 +15°C° 0 mm 2 m/S 759 mmHg 93%
    04:00 +15°C° 0 mm 2 m/S 759 mmHg 94%
    05:00 +15°C° 0 mm 2 m/S 759 mmHg 96%
    06:00 +17°C° 0 mm 2 m/S 758 mmHg 89%
    07:00 +18°C° 0 mm 2 m/S 758 mmHg 82%
    08:00 +20°C° 0 mm 2 m/S 758 mmHg 75%
    09:00 +23°C° 0 mm 2 m/S 758 mmHg 70%
    10:00 +24°C° 0 mm 3 m/S 758 mmHg 64%
    11:00 +26°C° 0 mm 3 m/S 758 mmHg 58%
    12:00 +26°C° 0,1 mm 3 m/S 757 mmHg 59%
    13:00 +27°C° 0,1 mm 3 m/S 757 mmHg 59%
    14:00 +27°C° 0,1 mm 3 m/S 757 mmHg 59%
    15:00 +27°C° 0,5 mm 3 m/S 756 mmHg 65%
    16:00 +26°C° 0,5 mm 3 m/S 756 mmHg 70%
    17:00 +25°C° 0,5 mm 2 m/S 756 mmHg 76%
    18:00 +24°C° 0,3 mm 2 m/S 756 mmHg 80%
    19:00 +21°C° 0,3 mm 2 m/S 756 mmHg 84%
    20:00 +20°C° 0,3 mm 2 m/S 756 mmHg 88%
    21:00 +19°C° 0 mm 2 m/S 756 mmHg 90%
    22:00 +19°C° 0 mm 2 m/S 756 mmHg 91%
    23:00 +19°C° 0 mm 2 m/S 755 mmHg 93%

    19 August, Sonntag

    Zeit Temperatur Niederschläge Wind Luftdruck Luftfeuchtigkeit
    00:00 +18°C° 0,1 mm 2 m/S 755 mmHg 94%
    01:00 +18°C° 0,1 mm 2 m/S 755 mmHg 96%
    02:00 +18°C° 0,1 mm 2 m/S 755 mmHg 97%
    03:00 +18°C° 0,2 mm 2 m/S 755 mmHg 97%
    04:00 +18°C° 0,2 mm 2 m/S 755 mmHg 98%
    05:00 +17°C° 0,2 mm 2 m/S 754 mmHg 98%
    06:00 +18°C° 0,1 mm 2 m/S 754 mmHg 96%
    07:00 +19°C° 0,1 mm 2 m/S 754 mmHg 94%
    08:00 +20°C° 0,1 mm 2 m/S 754 mmHg 91%
    09:00 +21°C° 0,2 mm 3 m/S 754 mmHg 85%
    10:00 +24°C° 0,2 mm 3 m/S 754 mmHg 78%
    11:00 +25°C° 0,2 mm 3 m/S 754 mmHg 72%
    12:00 +25°C° 0,7 mm 3 m/S 753 mmHg 73%
    13:00 +25°C° 0,7 mm 3 m/S 753 mmHg 75%
    14:00 +25°C° 0,7 mm 3 m/S 753 mmHg 76%
    15:00 +25°C° 0,5 mm 3 m/S 753 mmHg 76%
    16:00 +24°C° 0,5 mm 3 m/S 753 mmHg 75%
    17:00 +24°C° 0,5 mm 2 m/S 752 mmHg 74%
    18:00 +21°C° 0,1 mm 2 m/S 753 mmHg 79%
    19:00 +20°C° 0,1 mm 2 m/S 753 mmHg 84%
    20:00 +18°C° 0,1 mm 2 m/S 753 mmHg 90%
    21:00 +18°C° 0,3 mm 2 m/S 753 mmHg 92%
    22:00 +17°C° 0,3 mm 2 m/S 753 mmHg 94%
    23:00 +17°C° 0,3 mm 2 m/S 753 mmHg 97%

    20 August, Montag

    Zeit Temperatur Niederschläge Wind Luftdruck Luftfeuchtigkeit
    00:00 +17°C° 0,2 mm 2 m/S 753 mmHg 97%
    01:00 +16°C° 0,2 mm 2 m/S 753 mmHg 97%
    02:00 +16°C° 0,2 mm 2 m/S 754 mmHg 97%
    03:00 +16°C° 0,1 mm 2 m/S 754 mmHg 97%
    04:00 +15°C° 0,1 mm 2 m/S 754 mmHg 97%
    05:00 +14°C° 0,1 mm 2 m/S 754 mmHg 98%
    06:00 +15°C° 0 mm 2 m/S 754 mmHg 95%
    07:00 +15°C° 0 mm 2 m/S 755 mmHg 92%
    08:00 +16°C° 0 mm 2 m/S 755 mmHg 90%
    09:00 +18°C° 0 mm 2 m/S 755 mmHg 79%
    10:00 +19°C° 0 mm 2 m/S 755 mmHg 69%
    11:00 +21°C° 0 mm 2 m/S 756 mmHg 58%
    12:00 +21°C° 0 mm 2 m/S 756 mmHg 55%
    13:00 +23°C° 0 mm 2 m/S 756 mmHg 52%
    14:00 +23°C° 0 mm 2 m/S 756 mmHg 49%
    15:00 +23°C° 0 mm 2 m/S 756 mmHg 52%
    16:00 +23°C° 0 mm 1 m/S 756 mmHg 55%
    17:00 +22°C° 0 mm 1 m/S 756 mmHg 58%
    18:00 +20°C° 0 mm 1 m/S 756 mmHg 64%
    19:00 +18°C° 0 mm 1 m/S 756 mmHg 70%
    20:00 +14°C° 0 mm 0 m/S 756 mmHg 76%
    21:00 +14°C° 0 mm 0 m/S 756 mmHg 77%
    22:00 +13°C° 0 mm 0 m/S 756 mmHg 79%
    23:00 +13°C° 0 mm 0 m/S 757 mmHg 80%

    21 August, Dienstag

    Zeit Temperatur Niederschläge Wind Luftdruck Luftfeuchtigkeit
    00:00 +13°C° 0 mm 0 m/S 757 mmHg 80%
    01:00 +12°C° 0 mm 0 m/S 757 mmHg 81%
    02:00 +13°C° 0 mm 1 m/S 757 mmHg 82%
    03:00 +13°C° 0 mm 1 m/S 757 mmHg 83%
    04:00 +13°C° 0 mm 1 m/S 757 mmHg 84%
    05:00 +13°C° 0 mm 1 m/S 757 mmHg 85%
    06:00 +15°C° 0 mm 1 m/S 757 mmHg 80%
    07:00 +16°C° 0 mm 1 m/S 757 mmHg 74%
    08:00 +19°C° 0 mm 1 m/S 757 mmHg 69%
    09:00 +19°C° 0 mm 2 m/S 757 mmHg 64%
    10:00 +21°C° 0 mm 2 m/S 757 mmHg 59%
    11:00 +23°C° 0 mm 2 m/S 757 mmHg 54%
    12:00 +22°C° 0 mm 3 m/S 756 mmHg 53%
    13:00 +24°C° 0 mm 3 m/S 756 mmHg 51%
    14:00 +24°C° 0 mm 3 m/S 756 mmHg 50%
    15:00 +24°C° 0 mm 3 m/S 755 mmHg 52%
    16:00 +24°C° 0 mm 3 m/S 755 mmHg 55%
    17:00 +24°C° 0 mm 3 m/S 755 mmHg 58%
    18:00 +21°C° 0 mm 2 m/S 755 mmHg 65%
    19:00 +19°C° 0 mm 2 m/S 754 mmHg 73%
    20:00 +17°C° 0 mm 2 m/S 754 mmHg 81%
    21:00 +17°C° 0 mm 2 m/S 754 mmHg 83%
    22:00 +16°C° 0 mm 2 m/S 754 mmHg 85%
    23:00 +16°C° 0 mm 3 m/S 754 mmHg 87%
    Mehr zeigen